Regional Weather Roundup
Issued by NWS

Home | Current Version | Previous Version | Text Only | Print | Product List | Glossary On
Versions: 1 2 3 4 5 6 7 8 9 10 11 12 13 14 15 16 17 18 19 20 21 22 23 24 25 26 27 28 29 30 31 32 33 34 35 36 37 38 39 40 41 42 43 44 45 46 47 48 49 50
000
ASUS43 KTOP 261408
RWRKS

WEATHER ROUNDUP FOR KANSAS
NATIONAL WEATHER SERVICE GOODLAND KS
900 AM CDT TUE MAY 26 2015

NOTE:  "FAIR" INDICATES FEW OR NO CLOUDS BELOW 12,000 FEET WITH NO
SIGNIFICANT WEATHER AND/OR OBSTRUCTIONS TO VISIBILITY.

KSZ001>006-013>018-027>032-041>047-261500-
NORTHWEST KANSAS

CITY           SKY/WX    TMP DP  RH WIND       PRES   REMARKS
GOODLAND       SUNNY     56  50  80 NW9       30.00R
HAYS           SUNNY     63  50  63 NW14      29.93R
HILL CITY      MOSUNNY   61  53  75 NW10      29.94R
RUSSELL        SUNNY     62  55  77 W13       29.91R
$$

KSZ061>065-074>080-084>089-261500-
SOUTHWEST KANSAS

CITY           SKY/WX    TMP DP  RH WIND       PRES   REMARKS
DODGE CITY     SUNNY     63  52  67 NW7       29.98R
ELKHART          N/A     59  49  69 N6          N/A
GARDEN CITY    MOSUNNY   59  50  72 W5        29.99R
GREAT BEND     SUNNY     61  54  77 W10       29.94R
LIBERAL        MOSUNNY   61  52  72 CALM      30.01R
PRATT          SUNNY     63  54  72 W10       29.96R
$$

KSZ066>073-081>083-090>101-261500-
SOUTHEAST KANSAS

CITY           SKY/WX    TMP DP  RH WIND       PRES   REMARKS
CHANUTE        MOSUNNY   66  61  84 SW12      29.91R
COFFEYVILLE    SUNNY     65  61  87 SW8       29.93
HUTCHINSON     SUNNY     66  56  70 W13       29.91R
MEDICINE LODGE   N/A     65  55  70 SW7       29.94R
NEWTON         SUNNY     64  54  68 W15G21    29.92R
PARSONS        MOSUNNY   67  62  84 SW8       29.94R
WICHITA INTL   MOSUNNY   67  57  70 W13       29.91S
WICHITA JABRA  SUNNY     65  56  72 W13       29.91R
WICHITA MCCONL SUNNY     65  58  77 W10       29.92R
WINFIELD       SUNNY     64  59  83 W9        29.95R
$$

KSZ007>012-019>026-033>040-048>060-102>105-261500-
NORTHEAST KANSAS

CITY           SKY/WX    TMP DP  RH WIND       PRES   REMARKS
CONCORDIA      CLOUDY    60  56  86 W13       29.83S
EMPORIA        PTSUNNY   65  59  81 S16       29.88R
LAWRENCE       CLOUDY    65  61  87 S12       29.85S
MANHATTAN      PTSUNNY   65  59  81 SW14      29.83R
MARYSVILLE     CLOUDY    61  59  94 SW12      29.80
OLATHE IND     CLOUDY    63  61  93 S15       29.88R
OLATHE EXE     CLOUDY    63  61  93 SW12G17   29.86S
SALINA         SUNNY     65  57  75 W13       29.88R
TOPEKA BILLARD PTSUNNY   66  61  84 S12       29.85R
TOPEKA FORBES  MOSUNNY   66  61  84 S17       29.84S
$$



USA.gov is the U.S. government's official web portal to all federal, state and local government web resources and services.